Creston, IA

8:01 AM CDT on August 23, 2017 (GMT -0500)
Creston Municipal

Weather History for KCSQ - January, 2013

Change the Weather History Date:

Saturday, January 12, 2013

  Actual Average Record
Temperature  
Mean Temperature 25 °F -  
Max Temperature 35 °F 28 °F 55 °F (1961)
Min Temperature 14 °F 13 °F -9 °F (1963)
Degree Days  
Heating Degree Days 40    
Moisture  
Dew Point 12 °F    
Average Humidity 66    
Maximum Humidity 87    
Minimum Humidity 54    
Precipitation  
Precipitation 0.00 in - - ()
Sea Level Pressure  
Sea Level Pressure 29.98 in    
Wind  
Wind Speed 18 mph (WNW)    
Max Wind Speed 30 mph    
Max Gust Speed 36 mph    
Visibility 10 miles    
Events Snow    
Averages and records for this station are not official NWS values.
T = Trace of Precipitation, MM = Missing Value Source: NWS Daily Summary

Daily Weather History Graph

Daily Weather History Graph

Search for Another Location

Airport or City:

Trip Planner

Search our weather history database for the weather conditions in past years. The results will help you decide how hot, cold, wet, or windy it might be!

Date:

Astronomy

Jan. 12, 2013 Rise Set
Actual Time 7:41 AM CST 5:10 PM CST
Civil Twilight 7:10 AM CST 5:41 PM CST
Nautical Twilight 6:36 AM CST 6:15 PM CST
Astronomical Twilight 6:03 AM CST 6:48 PM CST
Moon 7:59 AM CST (1/12) 6:41 PM CST (1/12)
Length of Visible Light 10h 30m
Length of Day
9h 29m
New Moon, 1% of the Moon is Illuminated
Jan 12
New Moon
Jan 18
First Quarter
Jan 26
Full
Feb 3
Last Quarter
Feb 10
New

Hourly Weather History & Observations

Time (CST) Temp. Windchill Dew Point Humidity Pressure Visibility Wind Dir Wind Speed Gust Speed Precip Events Conditions
12:15 AM 35.6 °F 22.5 °F 30.2 °F 81% 29.65 in 7.0 mi West 29.9 mph 35.7 mph N/A   Overcast
12:35 AM 33.8 °F 23.2 °F 30.2 °F 87% 29.68 in 10.0 mi West 17.3 mph 31.1 mph N/A   Overcast
12:55 AM 33.8 °F 21.9 °F 28.4 °F 81% 29.70 in 10.0 mi West 21.9 mph 27.6 mph N/A   Overcast
1:15 AM 33.8 °F 22.2 °F 28.4 °F 81% 29.72 in 10.0 mi West 20.7 mph 32.2 mph N/A   Overcast
1:35 AM 33.8 °F 22.5 °F 28.4 °F 81% 29.75 in 10.0 mi West 19.6 mph 28.8 mph N/A   Overcast
2:15 AM 30.2 °F 16.2 °F 24.8 °F 80% 29.78 in 10.0 mi West 25.3 mph 32.2 mph N/A   Overcast
2:35 AM 28.4 °F 14.1 °F 21.2 °F 74% 29.81 in 10.0 mi West 24.2 mph 29.9 mph N/A   Mostly Cloudy
2:55 AM 26.6 °F 11.7 °F 17.6 °F 69% 29.83 in 10.0 mi West 24.2 mph 31.1 mph N/A   Scattered Clouds
3:15 AM 26.6 °F 12.7 °F 17.6 °F 69% 29.86 in 10.0 mi West 20.7 mph 26.5 mph N/A   Clear
3:35 AM 24.8 °F 11.1 °F 17.6 °F 74% 29.86 in 10.0 mi West 18.4 mph - N/A   Clear
3:55 AM 24.8 °F 11.9 °F 17.6 °F 74% 29.87 in 10.0 mi West 16.1 mph 23.0 mph N/A   Scattered Clouds
4:15 AM 24.8 °F 9.6 °F 15.8 °F 69% 29.87 in 10.0 mi West 23.0 mph 27.6 mph N/A   Scattered Clouds
4:35 AM 24.8 °F 11.1 °F 15.8 °F 69% 29.89 in 10.0 mi West 18.4 mph 24.2 mph N/A   Mostly Cloudy
4:55 AM 23.0 °F 8.0 °F 12.2 °F 63% 29.90 in 10.0 mi West 20.7 mph 31.1 mph N/A   Mostly Cloudy
5:15 AM 21.2 °F 4.9 °F 12.2 °F 68% 29.91 in 10.0 mi WNW 23.0 mph 27.6 mph N/A   Scattered Clouds
5:35 AM 21.2 °F 6.8 °F 12.2 °F 68% 29.92 in 10.0 mi West 17.3 mph 25.3 mph N/A   Clear
5:55 AM 21.2 °F 7.8 °F 12.2 °F 68% 29.96 in 10.0 mi West 15.0 mph - N/A   Clear
6:15 AM 21.2 °F 9.5 °F 12.2 °F 68% 29.96 in 10.0 mi West 11.5 mph - N/A   Clear
6:35 AM 21.2 °F 7.8 °F 12.2 °F 68% 29.97 in 10.0 mi West 15.0 mph - N/A   Clear
6:55 AM 21.2 °F 7.3 °F 10.4 °F 63% 29.96 in 10.0 mi WNW 16.1 mph 21.9 mph N/A   Clear
7:15 AM 19.4 °F 8.6 °F 12.2 °F 74% 29.97 in 10.0 mi West 9.2 mph 12.7 mph N/A   Clear
7:35 AM 19.4 °F 10.4 °F 12.2 °F 74% 29.99 in 10.0 mi West 6.9 mph - N/A   Clear
7:55 AM 19.4 °F 8.6 °F 12.2 °F 74% 29.99 in 10.0 mi West 9.2 mph - N/A   Clear
8:15 AM 19.4 °F 10.4 °F 12.2 °F 74% 29.99 in 10.0 mi West 6.9 mph - N/A   Clear
8:35 AM 21.2 °F 9.5 °F 14.0 °F 74% 30.01 in 10.0 mi West 11.5 mph - N/A   Clear
8:55 AM 21.2 °F 7.3 °F 12.2 °F 68% 30.00 in 10.0 mi WNW 16.1 mph - N/A   Clear
9:15 AM 23.0 °F 8.7 °F 10.4 °F 59% 30.01 in 10.0 mi WNW 18.4 mph - N/A   Clear
9:35 AM 21.2 °F 6.0 °F 10.4 °F 63% 30.00 in 10.0 mi WNW 19.6 mph 26.5 mph N/A   Clear
9:55 AM 21.2 °F 6.0 °F 10.4 °F 63% 30.02 in 10.0 mi West 19.6 mph 24.2 mph N/A   Clear
10:15 AM 21.2 °F 6.4 °F 8.6 °F 58% 30.02 in 10.0 mi West 18.4 mph - N/A   Clear
10:35 AM 21.2 °F 6.0 °F 10.4 °F 63% 30.02 in 10.0 mi West 19.6 mph - N/A   Clear
10:55 AM 24.8 °F 11.5 °F 10.4 °F 54% 30.04 in 10.0 mi WNW 17.3 mph - N/A   Clear
11:15 AM 24.8 °F 12.4 °F 12.2 °F 59% 30.03 in 10.0 mi WNW 15.0 mph - N/A   Clear
11:55 AM 24.8 °F 11.9 °F 10.4 °F 54% 30.03 in 10.0 mi WNW 16.1 mph 21.9 mph N/A   Clear
12:15 PM 23.0 °F 10.1 °F 12.2 °F 63% 30.02 in 10.0 mi WNW 15.0 mph 24.2 mph N/A   Clear
12:35 PM 23.0 °F 9.6 °F 12.2 °F 63% 30.01 in 10.0 mi WNW 16.1 mph - N/A   Scattered Clouds
12:55 PM 23.0 °F 9.6 °F 12.2 °F 63% - 10.0 mi WNW 16.1 mph 23.0 mph N/A   Clear
1:15 PM 23.0 °F 10.1 °F 10.4 °F 59% 30.01 in 10.0 mi WNW 15.0 mph - N/A   Scattered Clouds
1:35 PM 21.2 °F 6.8 °F 10.4 °F 63% 30.00 in 10.0 mi WNW 17.3 mph 20.7 mph N/A   Mostly Cloudy
1:55 PM 21.2 °F 8.3 °F 10.4 °F 63% 30.01 in 10.0 mi WNW 13.8 mph 17.3 mph N/A   Mostly Cloudy
2:15 PM 21.2 °F 9.5 °F 8.6 °F 58% 30.01 in 10.0 mi NW 11.5 mph - N/A   Mostly Cloudy
2:35 PM 21.2 °F 10.1 °F 10.4 °F 63% 30.01 in 10.0 mi WNW 10.4 mph 17.3 mph N/A   Scattered Clouds
2:55 PM 21.2 °F 10.1 °F 10.4 °F 63% 30.05 in 10.0 mi WNW 10.4 mph - N/A   Scattered Clouds
3:15 PM 21.2 °F 9.5 °F 8.6 °F 58% 30.04 in 10.0 mi WNW 11.5 mph - N/A   Scattered Clouds
3:35 PM 21.2 °F 12.6 °F 10.4 °F 63% 30.02 in 10.0 mi NNW 6.9 mph - N/A   Scattered Clouds
3:55 PM 21.2 °F 10.1 °F 10.4 °F 63% 30.00 in 10.0 mi NNW 10.4 mph - N/A   Clear
4:15 PM 23.0 °F 13.1 °F 8.6 °F 54% 30.03 in 10.0 mi NW 9.2 mph - N/A   Scattered Clouds
4:35 PM 21.2 °F 10.1 °F 10.4 °F 63% 30.03 in 10.0 mi NW 10.4 mph - N/A   Scattered Clouds
4:55 PM 21.2 °F 9.5 °F 10.4 °F 63% 30.03 in 10.0 mi NNW 11.5 mph - N/A   Mostly Cloudy
5:15 PM 21.2 °F 9.5 °F 10.4 °F 63% 30.03 in 10.0 mi NW 11.5 mph - N/A   Overcast
5:35 PM 21.2 °F 8.3 °F 10.4 °F 63% 30.03 in 10.0 mi NW 13.8 mph - N/A   Overcast
5:55 PM 21.2 °F 8.3 °F 8.6 °F 58% 30.06 in 10.0 mi NW 13.8 mph - N/A   Overcast
6:15 PM 21.2 °F 9.5 °F 8.6 °F 58% 30.07 in 10.0 mi NW 11.5 mph - N/A   Overcast
6:35 PM 19.4 °F 7.9 °F 8.6 °F 63% 30.09 in 10.0 mi NW 10.4 mph - N/A   Overcast
6:55 PM 19.4 °F 9.5 °F 8.6 °F 63% 30.08 in 10.0 mi NW 8.1 mph - N/A   Overcast
7:15 PM 19.4 °F 6.6 °F 8.6 °F 63% 30.06 in 10.0 mi NW 12.7 mph - N/A   Mostly Cloudy
7:35 PM 19.4 °F 6.0 °F 8.6 °F 63% 30.06 in 10.0 mi NW 13.8 mph - N/A   Mostly Cloudy
7:55 PM 19.4 °F 6.6 °F 8.6 °F 63% 30.05 in 10.0 mi NNW 12.7 mph - N/A   Mostly Cloudy
8:15 PM 19.4 °F 6.6 °F 8.6 °F 63% 30.06 in 10.0 mi NW 12.7 mph 19.6 mph N/A   Scattered Clouds
8:35 PM 19.4 °F 6.0 °F 8.6 °F 63% 30.06 in 10.0 mi NW 13.8 mph - N/A   Mostly Cloudy
8:55 PM 17.6 °F 3.2 °F 8.6 °F 68% 30.06 in 10.0 mi NW 15.0 mph 18.4 mph N/A   Mostly Cloudy
9:15 PM 17.6 °F 3.7 °F 6.8 °F 63% 30.05 in 10.0 mi NW 13.8 mph - N/A   Mostly Cloudy
9:35 PM 17.6 °F 2.7 °F 6.8 °F 63% 30.04 in 10.0 mi NW 16.1 mph - N/A   Scattered Clouds
9:55 PM 15.8 °F 1.4 °F 6.8 °F 68% 30.06 in 10.0 mi NW 13.8 mph 20.7 mph N/A   Clear
10:15 PM 15.8 °F 0.9 °F 6.8 °F 68% 30.05 in 10.0 mi NW 15.0 mph - N/A   Clear
10:35 PM 15.8 °F 0.9 °F 6.8 °F 68% 30.05 in 10.0 mi NW 15.0 mph - N/A   Scattered Clouds
10:55 PM 15.8 °F 0.9 °F 6.8 °F 68% 30.05 in 10.0 mi NW 15.0 mph - N/A   Overcast
11:15 PM 15.8 °F 0.3 °F 5.0 °F 62% 30.05 in 10.0 mi NW 16.1 mph 20.7 mph N/A   Overcast
11:35 PM 15.8 °F 0.3 °F 5.0 °F 62% 30.02 in 10.0 mi NW 16.1 mph 20.7 mph N/A   Overcast
11:55 PM 14.0 °F -1.4 °F 5.0 °F 67% 30.05 in 7.0 mi NW 15.0 mph 21.9 mph N/A Snow Light Snow